Terug naar catalogus

COSMOS 2004

ActiefMilitairPO
NORAD 19826·PAYLOAD·🇷🇺 Russia

Gelanceerd Feb 22, 1989 vanaf Plesetsk Cosmodrome

Loading…

Volgende Passages (komende 24 uur)

TLE

VersSource: Space-Track

Epoch: Sep 14, 2026, 14:57 UTC

1 19826U 89017A   26257.62320432  .00000047  00000-0  35273-4 0  9990
2 19826  82.9520 217.4232 0030272   4.5111 169.5624 13.72561472880750

Volg COSMOS 2004 in realtime met AllMySat

Download on the App Store